Погода в Торопове

Россия / Вологодская область     59°29′53″N   35°39′40″E
темп.,
°C
ветер,
м/с
пор.,
м/с
влажн.,
%
обл.,
%
осадки,
мм/ч
давл.,
гПа
погр.,
м
23 апреля, пт
пт2300:00+4юв310905 0.0 1010187
03:00+4ююв311936 0.0 1010247
06:00+4ююв31194100 0.0 1009322
09:00+9ю51177100 0.0 1008855
12:00+5зюз2795100 1.1 1010656
15:00+5юз2695100 4.1 1010544
18:00+6ю258597 0.8 1009614
21:00+5ююв239697 3.9 1010135
24 апреля, сб
сб2400:00+3ююв2398100 0.0 101086
03:00+3юв1197100 0.0 100930
06:00+3вюв1399100 0.4 100897
09:00+4в1296100 2.4 1007569
12:00+3ссз1298100 1.6 1007419
15:00+2сз2599100 3.6 1007333
18:00+3сз2695100 1.1 1006526
21:00+3з2793100 1.1 1006219
25 апреля, вс
вс2500:00+2зсз3993100 0.0 1005443
03:00+1зсз41095100 0.1 1005490
06:000зсз41094100 0.3 1004519
09:00+1з41093100 1.2 1004585
12:00+3з5986100 1.1 1004968
15:00+3з5986100 2.0 10041011
18:00+3з4993100 0.9 1004863
21:00+2з3998100 1.5 1005788
26 апреля, пн
пн2600:00+2з4998100 0.1 1005732
03:00+1зюз41096100 0.2 1005587
06:00+1зюз31097100 0.2 1004535
09:00+3зюз4888100 0.4 1005706
12:00+5зюз4770100 0.3 10051367
15:00+6з4862100 0.4 10051641
18:00+5з3769100 0.2 10051037
21:00+2з1286100 0.3 100655
27 апреля, вт
вт2700:00+1зюз2494100 0.1 1006155
03:00+1юз2796100 0.1 1005301
06:00+1юз3892100 0.0 1005442
09:00+3зюз4778100 0.1 1004997
12:00+3зюз4884100 0.3 1005903
15:00+3зюз3997100 1.4 1005613
18:00+2зсз3797100 0.5 1005360
21:00+1зсз3798100 0.7 1006517